Wind_Speed
30 28 27 27 26 24 24 21 19 18 18 18 15 12 10 8 11 14 14 16 15 15 18 21 20 20 19 17 16 18 18 18 19 18 17 15 12 13 13 15 16 16 16
32 30 30 29 27 25 25 24 22 19 19 19 17 16 11 11 13 11 13 17 18 18 19 20 18 18 20 20 17 20 19 19 21 22 20 19 15 16 16 16 17 17 17
36 33 34 31 29 26 25 26 24 21 21 20 21 16 15 12 9 11 13 18 22 18 19 21 19 18 20 20 18 21 21 22 23 23 23 21 19 19 18 19 19 19 18
38 36 34 36 32 28 28 28 26 26 23 23 23 19 19 17 14 12 16 16 20 20 22 22 22 21 21 20 19 21 24 24 25 25 25 24 22 19 20 21 21 22 21
42 40 38 37 35 32 31 32 30 29 25 25 22 20 20 19 19 17 16 17 17 21 23 24 25 25 25 23 22 21 25 24 25 25 27 27 27 23 25 24 23 23 23
43 42 35 35 36 36 33 33 32 30 29 25 22 22 21 22 24 22 19 19 20 20 20 22 24 26 26 28 26 25 25 25 24 27 28 29 29 27 26 28 27 25 25
43 45 42 32 37 40 37 33 30 30 27 26 20 18 24 24 25 25 24 24 24 24 22 23 23 23 23 26 28 29 27 27 26 27 30 31 31 31 30 30 29 28 27
48 51 45 36 38 40 37 33 33 26 24 26 14 6 2 7 22 27 27 28 31 30 29 27 26 28 25 26 27 31 31 30 29 29 31 32 33 31 33 33 31 30 29
51 48 48 42 39 38 38 35 36 31 25 27 25 8 2 5 4 24 35 35 35 33 33 31 33 33 29 29 27 27 31 33 34 31 32 35 35 34 34 35 34 33 32
41 47 50 44 43 43 37 36 35 34 27 25 27 30 15 4 4 2 11 27 33 32 31 31 32 34 31 32 30 27 26 31 34 36 33 35 37 36 35 37 37 36 34
43 46 51 44 41 43 39 38 32 34 33 24 26 22 27 22 17 4 3 7 25 33 34 35 31 32 31 32 32 30 27 26 30 35 38 37 39 39 38 39 38 39 36
37 44 46 43 36 38 40 41 35 35 34 30 29 28 24 18 20 11 6 5 9 22 32 28 34 34 33 33 34 32 32 32 32 32 35 41 41 42 41 39 39 40 40
3 12 2 27 24 35 35 38 37 34 38 35 33 33 30 31 26 22 18 8 4 13 19 31 34 38 38 38 36 34 35 33 32 32 33 38 45 44 45 42 42 44 44
15 19 20 16 10 3 20 35 38 34 35 37 34 31 28 32 28 27 21 15 3 5 12 18 26 35 36 37 34 30 34 32 31 32 31 34 42 48 50 47 43 42 44
11 4 25 21 4 10 18 18 30 29 29 31 33 33 34 33 32 30 30 28 12 4 5 19 21 30 36 37 34 32 34 32 31 32 33 35 38 48 52 51 45 43 44
29 22 19 25 25 19 9 24 26 19 8 2 16 23 27 30 31 32 30 30 21 18 7 17 21 29 30 36 36 36 34 31 30 32 33 33 37 42 51 50 46 44 45
43 39 35 34 33 29 26 25 29 27 22 17 17 19 10 17 26 25 26 29 30 28 14 23 18 22 27 31 37 40 37 34 34 31 31 33 36 40 49 48 49 47 46
41 39 44 42 36 35 33 34 32 29 27 27 26 23 23 21 17 16 15 23 28 28 24 16 29 27 31 34 35 41 40 37 37 35 33 34 36 39 46 52 52 53 50
44 47 45 43 42 42 40 38 37 32 32 32 30 29 30 28 29 27 24 24 23 21 26 20 23 23 33 31 30 34 37 36 36 37 35 33 35 37 43 52 55 53 54
42 48 48 47 45 44 38 35 36 34 33 32 31 26 29 33 32 30 25 27 28 30 16 20 21 21 23 26 31 24 23 30 35 38 36 33 35 37 39 46 54 59 55
41 43 49 41 42 41 37 28 30 31 29 30 33 28 28 29 30 31 27 28 26 26 22 16 14 22 21 11 21 19 27 28 31 37 37 38 36 39 40 40 45 48 54
38 36 33 33 36 38 34 35 29 26 27 33 32 33 29 33 34 35 32 26 22 22 18 15 11 15 17 17 25 27 27 18 7 33 33 31 35 38 39 39 41 44 52
35 35 33 34 39 41 41 35 36 31 31 33 32 31 31 34 40 38 38 30 22 21 23 19 19 16 19 18 30 21 28 26 29 27 31 25 31 37 37 37 38 40 51
29 32 32 34 33 39 39 34 31 34 30 29 30 30 33 33 38 40 32 31 31 31 29 22 14 19 18 21 21 23 30 31 31 28 31 12 24 29 33 32 37 40 41
29 30 31 32 34 37 40 39 33 29 30 28 27 30 32 31 34 36 32 30 29 32 32 25 22 17 18 19 21 22 18 17 5 14 37 29 19 21 22 28 30 36 43
30 30 32 38 35 37 37 37 35 32 30 27 26 29 33 34 32 32 31 29 28 31 34 36 33 29 26 23 23 19 18 10 9 5 21 25 21 18 4 17 26 27 29
Wind_Direction
205 209 207 208 208 209 213 211 211 207 205 200 212 227 211 207 192 209 188 190 187 187 181 182 189 195 202 207 212 211 202 206 206 206 197 192 206 203 196 188 186 181 177
211 211 208 209 211 212 216 217 214 207 204 200 211 206 213 219 202 192 199 193 192 192 195 196 203 216 215 220 223 212 210 209 209 208 205 204 207 206 205 198 188 185 182
213 212 207 209 213 211 208 213 218 218 214 208 211 218 223 222 218 211 210 199 197 203 209 210 218 218 213 221 224 218 217 216 215 215 211 205 209 201 210 201 194 188 188
214 211 211 212 211 206 207 209 213 215 211 209 211 217 223 222 222 228 219 213 208 209 215 220 225 227 225 227 229 227 224 222 218 219 218 210 213 204 208 205 202 195 191
213 211 214 216 207 207 208 210 213 218 210 216 218 220 219 226 231 223 229 214 221 223 225 222 227 231 234 233 235 233 226 228 226 224 223 220 215 215 202 208 208 203 197
212 212 216 217 211 207 209 212 214 217 218 218 220 221 222 227 233 235 233 229 224 227 229 233 226 231 237 237 236 237 233 230 224 225 227 225 220 218 212 203 209 209 206
215 212 210 209 211 210 206 205 204 209 210 209 211 226 235 233 231 228 231 233 239 241 241 240 236 237 237 238 236 234 235 225 224 223 224 227 224 220 216 207 208 210 207
224 211 209 209 208 205 207 200 201 198 202 197 188 148 187 241 234 229 233 235 233 236 238 236 241 241 249 242 239 236 234 232 227 230 227 225 223 222 218 211 207 210 213
219 212 214 211 208 200 201 206 210 200 197 198 203 173 159 216 201 226 230 236 237 234 235 232 238 240 241 241 239 239 237 235 236 233 231 226 225 224 220 215 209 211 212
225 211 210 206 209 209 200 201 207 211 208 209 213 215 217 173 191 255 236 231 235 235 235 234 236 237 235 240 235 238 239 238 239 237 235 228 228 226 223 218 214 213 213
236 218 207 200 204 210 209 206 208 212 210 205 207 212 221 237 246 234 256 221 222 229 237 237 232 228 232 232 232 236 243 239 240 241 237 233 229 229 225 221 219 218 216
245 231 200 193 197 199 203 204 205 211 209 209 210 218 219 216 228 220 229 227 208 221 226 238 232 234 229 223 231 239 243 245 245 242 240 234 230 228 227 223 222 221 220
14 315 205 165 189 206 209 205 205 209 211 208 209 217 219 224 221 226 234 242 213 210 217 230 233 237 237 233 233 243 240 240 244 243 242 237 231 229 226 224 223 220 220
65 45 348 66 100 147 213 220 211 209 206 210 216 219 227 230 229 227 232 224 250 236 214 227 238 239 237 234 230 231 235 237 242 243 241 239 233 231 227 223 222 223 221
73 81 55 44 73 2 9 263 213 202 200 206 219 226 228 238 238 238 245 236 211 234 230 240 233 238 240 236 231 228 234 236 239 243 245 241 239 233 231 223 219 221 225
78 87 81 52 60 65 258 14 56 48 52 290 242 231 234 242 244 247 243 241 244 245 253 247 252 246 238 236 234 230 235 239 241 244 245 243 241 237 234 223 220 221 225
62 62 67 61 53 54 52 45 44 37 32 21 12 19 344 290 260 256 254 249 241 228 235 255 260 282 253 245 237 231 232 239 240 243 243 241 242 239 235 224 225 223 225
63 59 57 64 49 58 49 50 49 43 31 28 19 14 11 5 10 -0 314 237 239 234 230 242 259 255 251 250 239 230 227 233 240 243 239 241 242 239 235 229 229 225 224
54 57 55 49 45 43 45 46 52 50 46 41 38 31 21 13 10 358 352 334 331 260 244 253 269 254 242 233 224 230 231 234 241 245 242 244 246 240 238 236 232 229 227
49 54 51 46 41 40 41 44 50 51 49 45 41 38 27 22 15 6 6 352 343 332 308 250 248 243 248 228 224 219 233 234 234 241 244 249 244 242 238 241 239 230 227
52 48 51 46 44 40 37 45 45 43 44 42 36 31 30 17 20 14 11 4 359 340 323 308 297 250 244 217 211 218 236 225 227 231 244 247 245 243 244 244 244 250 223
52 57 55 51 49 40 37 46 48 44 37 40 31 18 23 17 9 19 21 24 27 5 337 326 331 315 309 264 248 224 223 219 231 233 234 236 235 241 243 246 246 242 222
50 52 50 44 44 38 34 38 43 40 36 34 30 18 15 16 12 5 18 17 21 4 10 9 331 343 316 316 317 303 225 224 229 226 215 226 229 231 238 244 247 237 224
53 51 50 47 44 39 34 34 36 37 34 31 26 21 16 13 13 11 6 4 9 8 9 0 351 333 338 327 319 305 292 252 231 216 211 204 216 220 226 227 227 225 224
49 50 49 45 41 37 31 30 31 29 29 25 22 21 16 12 13 13 9 3 2 0 7 4 13 2 354 352 345 329 321 322 231 200 198 207 201 204 211 217 221 223 225
46 45 43 38 37 35 30 29 27 27 21 14 16 14 15 13 11 10 15 9 357 351 356 3 7 9 10 4 2 359 345 337 326 308 203 200 184 184 182 217 217 225 224
Height
782 784 786 789 792 795 799 801 802 802 804 807 809 812 814 815 816 817 818 819 820 822 823 826 829 831 833 835 837 839 840 843 846 849 851 853 854 857 859 861 862 864 866
779 781 782 785 788 790 796 799 800 801 802 804 808 809 812 813 814 815 816 817 818 820 821 823 825 827 829 832 834 836 838 840 843 845 848 851 852 856 857 860 862 864 865
772 775 776 779 782 784 788 795 798 799 800 801 804 807 810 811 811 812 813 814 816 819 820 821 822 824 826 829 831 833 835 838 840 843 845 847 849 851 856 858 860 861 864
763 767 770 772 776 780 783 788 793 795 794 796 799 801 806 808 809 810 810 811 813 816 817 818 820 821 823 826 828 830 832 834 837 839 842 844 846 846 854 856 859 859 861
757 760 760 766 771 775 777 783 786 791 792 795 796 797 800 804 806 807 808 809 809 812 813 815 816 817 819 821 824 825 827 830 833 835 838 841 843 844 847 852 856 858 859
750 758 756 760 766 769 771 777 782 786 788 791 794 796 797 798 801 803 805 806 806 807 809 811 812 813 814 816 818 821 823 825 827 830 833 836 839 841 843 846 851 854 857
741 749 750 752 758 761 764 769 774 779 783 787 790 792 794 795 796 797 800 802 802 803 803 805 807 808 809 811 812 815 817 820 822 824 827 830 835 837 839 841 846 850 853
731 740 741 743 748 753 759 765 769 773 779 783 786 788 792 795 792 791 792 794 796 798 798 798 800 801 803 804 805 808 811 814 817 819 821 824 828 832 835 838 840 845 849
723 725 730 737 743 747 751 757 762 766 770 774 778 783 790 789 786 784 782 783 786 790 791 792 792 795 796 798 799 801 804 807 810 812 815 818 821 825 829 833 835 839 844
715 713 719 728 732 739 745 748 753 759 765 768 771 773 775 777 782 783 777 774 778 783 786 786 786 787 789 791 793 794 797 800 802 805 808 811 814 818 823 827 831 833 837
708 707 709 716 720 730 737 742 747 752 757 762 765 767 770 772 775 779 778 771 770 772 777 780 780 782 782 783 786 788 790 792 795 798 801 804 807 811 815 819 824 828 831
702 705 694 705 714 722 729 734 741 746 750 755 759 761 762 765 764 771 774 769 765 764 768 775 777 776 777 776 778 780 782 785 787 790 792 796 799 802 807 811 816 821 825
697 693 662 686 705 717 723 732 736 739 742 748 751 753 757 757 757 761 767 765 763 761 762 766 768 770 771 770 770 773 775 777 779 781 783 786 790 793 797 802 807 811 817
699 688 684 671 696 716 721 729 730 731 736 742 745 749 754 753 753 752 759 762 762 759 758 758 760 762 763 764 762 764 767 770 771 773 775 777 780 784 787 791 798 804 810
705 705 696 691 704 710 713 717 723 724 730 735 737 742 746 748 749 748 754 757 755 760 755 751 753 752 753 755 756 759 760 762 763 765 766 768 770 774 777 780 787 794 801
704 696 711 706 710 707 721 691 693 713 727 734 738 740 740 743 744 743 747 751 750 752 751 745 746 748 746 748 749 751 753 754 755 757 758 759 762 765 769 770 777 785 792
702 708 708 716 719 724 722 720 716 720 731 735 736 736 737 739 738 738 740 741 736 742 743 740 739 742 742 739 741 742 744 746 746 748 749 751 753 756 759 763 769 775 781
725 722 719 718 733 729 731 723 724 731 740 737 742 741 738 738 736 737 735 729 734 732 733 725 729 729 732 732 731 734 734 737 739 740 740 741 744 746 750 754 759 764 770
730 728 732 736 737 733 728 732 730 741 745 746 746 744 747 745 738 737 735 734 733 726 725 725 718 722 721 723 723 727 729 730 731 732 735 734 735 737 741 745 748 753 759
741 738 741 739 747 746 746 748 745 746 749 751 752 752 754 750 746 743 735 736 732 728 722 716 713 713 714 712 714 717 723 723 723 723 726 727 727 728 730 733 736 740 746
753 751 746 764 762 763 765 761 759 760 758 756 756 759 756 757 749 748 741 735 732 731 728 719 711 707 706 706 706 708 710 713 713 715 715 715 717 719 719 722 724 725 733
769 770 780 783 778 777 777 766 766 766 766 756 758 763 757 754 755 744 741 738 734 740 735 720 712 710 706 699 698 698 699 703 703 705 705 705 706 707 708 711 713 715 721
785 788 788 784 780 780 778 774 769 771 765 762 764 770 763 755 751 746 735 741 743 741 736 721 723 714 711 702 702 695 687 687 689 690 695 696 696 696 699 700 702 705 710
799 795 796 793 793 788 788 783 777 769 772 773 774 769 766 761 751 745 745 744 739 738 733 730 723 719 709 704 699 698 688 681 679 679 682 686 686 689 691 693 696 698 703
802 798 799 799 794 790 784 781 781 780 778 779 777 772 770 765 755 750 748 745 740 739 737 734 719 716 707 702 697 688 682 681 671 668 669 673 678 682 684 686 688 690 695
803 800 797 796 797 797 795 790 783 783 781 784 781 777 770 765 761 760 753 747 747 742 733 725 718 711 704 700 694 691 687 681 679 667 663 666 667 673 681 681 682 684 687